Location: *
(32.8667°N, 13.1833°E)
Time: 03:36:56
(UTC+00:00)

EO 1 Del DPAF - Pass Details

Date: 18 July 2019
Orbit: 517 x 521 km, 98.1° (Epoch: 21 August)

Event Time Altitude Azimuth Distance (km) Brightness Sun altitude
Rises 20:12:18 0° 11° (N) 2,652 7.3 -20.9°
Reaches altitude 10° 20:14:24 10° 10° (N) 1,759 6.3 -21.3°
Maximum altitude 20:18:11 82° 285° (WNW) 530 3.2 -21.8°
Enters shadow 20:18:38 68° 213° (SSW) 564 3.2 -21.9°
